Wind_Speed
68 65 61 59 57 57 58 57 54 55 55 52 52 51 49 45 44 44 46 48 45 42 42 42 43 43 43 40 39 39 37 38 38 38 38 38 38 39 39 40 41 42 44 45 44 44 45 46 46
70 67 64 60 60 61 63 59 55 55 54 58 56 53 52 48 51 50 51 50 48 48 47 46 45 45 46 47 46 46 45 45 44 43 42 43 43 43 43 44 46 46 47 48 49 50 50 49 50
74 69 66 62 62 65 67 59 57 56 58 58 57 57 53 51 57 55 52 53 52 51 50 49 49 50 50 49 50 51 50 49 48 46 47 48 49 51 52 52 51 52 53 52 53 52 52 53 54
76 70 67 64 69 71 69 61 58 61 66 60 59 59 56 55 61 55 54 56 54 54 53 53 52 52 53 53 54 54 55 53 53 54 53 54 55 55 56 58 57 57 58 58 58 57 58 58 57
77 74 70 68 74 75 72 65 63 66 65 64 64 60 56 57 60 59 56 58 59 58 57 56 55 56 57 56 56 56 56 57 58 57 58 60 61 62 62 63 63 63 62 62 62 63 63 63 62
79 76 72 71 78 76 75 69 68 70 68 68 68 63 60 62 63 61 59 62 62 63 61 61 62 62 62 61 62 61 62 62 62 62 64 66 66 67 68 68 69 69 68 68 68 67 67 67 67
82 79 76 77 78 75 78 77 70 73 70 71 70 65 62 63 66 66 63 64 66 69 69 68 70 72 72 72 72 73 73 72 72 72 71 72 73 73 73 74 74 73 74 74 72 73 73 73 72
87 81 79 79 80 80 81 78 74 73 72 72 72 72 66 68 69 67 65 66 69 70 69 69 71 74 75 75 75 76 76 75 75 76 75 75 75 75 77 78 78 78 77 78 77 76 77 77 76
89 83 81 83 84 86 86 81 76 74 76 76 73 73 72 75 75 74 70 66 70 71 70 69 70 71 71 72 72 72 74 75 75 75 75 76 76 78 79 80 80 81 82 81 80 79 77 76 77
86 84 85 87 88 90 87 81 80 80 84 81 76 79 76 75 75 77 77 73 72 73 73 73 73 71 70 71 73 73 75 76 76 78 77 78 78 79 82 82 83 82 82 84 83 83 84 84 83
82 80 81 85 88 88 86 85 81 80 82 82 80 80 79 80 80 76 80 78 74 73 71 73 75 74 71 71 70 72 75 77 79 80 81 82 83 83 83 85 85 85 85 84 83 84 85 84 83
81 81 79 81 85 82 82 83 81 79 79 80 82 83 85 83 79 78 79 73 71 70 68 67 67 69 71 72 70 72 73 76 78 78 78 81 82 82 82 81 82 81 81 81 82 82 81 83 84
78 78 79 82 82 79 80 79 77 74 76 77 80 77 71 66 72 69 68 70 69 68 70 69 68 67 68 70 72 74 73 73 75 75 73 73 74 74 73 74 74 75 76 76 79 79 79 80 81
72 74 76 78 78 74 75 75 68 65 73 75 70 67 67 63 68 67 66 67 67 67 67 69 69 68 68 70 72 71 71 69 70 69 66 66 69 69 69 69 70 71 71 72 72 73 72 72 72
71 72 76 78 77 73 75 69 63 67 67 64 66 65 65 64 68 68 69 67 69 68 67 71 71 71 70 69 69 67 65 66 66 65 66 67 67 67 67 67 67 69 72 73 73 73 73 72 70
75 75 75 79 77 74 73 64 68 67 65 63 64 66 67 68 70 69 70 71 72 73 71 71 72 71 68 65 64 65 63 64 64 64 65 66 66 64 64 63 65 66 69 72 75 76 75 74 73
75 74 76 78 76 76 71 64 71 68 68 69 72 71 70 71 72 74 74 73 71 73 75 69 66 64 63 61 58 58 58 58 59 60 63 64 63 61 60 61 61 62 64 69 71 74 76 76 75
80 78 75 76 73 72 70 69 72 73 71 72 72 74 72 70 73 75 74 73 71 70 71 69 63 62 64 62 56 54 53 54 54 54 59 61 61 58 58 59 59 59 61 63 66 70 72 74 75
79 75 77 80 80 76 75 74 75 79 73 74 76 76 76 76 80 78 75 75 71 69 68 68 68 64 63 64 62 58 54 50 51 52 51 57 59 54 58 58 59 59 59 60 61 64 67 71 73
86 86 83 81 79 75 77 75 78 79 77 77 79 78 81 82 80 76 74 73 71 70 67 66 67 70 69 68 65 59 56 52 51 51 53 52 51 53 56 59 61 62 61 61 59 60 64 67 69
86 84 86 85 84 83 78 76 80 80 81 82 84 86 86 81 78 76 73 70 70 71 74 73 72 70 70 69 72 67 61 57 55 55 55 54 54 51 49 54 59 62 62 61 62 62 62 63 66
81 82 82 83 84 83 82 78 79 80 82 84 87 85 82 81 80 77 75 74 72 73 77 76 78 77 75 74 73 77 69 63 61 58 56 54 52 45 43 49 55 62 62 62 65 65 65 65 65
77 79 83 82 82 79 78 75 74 79 81 81 83 85 82 80 80 79 80 80 80 78 78 82 82 80 79 76 71 76 76 68 63 59 57 54 54 50 49 52 56 62 64 66 67 70 70 69 67
75 78 80 79 77 74 77 75 66 73 79 81 80 80 80 83 84 85 87 87 87 86 86 85 86 86 85 81 74 71 75 76 69 61 59 54 53 53 56 59 58 58 62 64 66 69 71 72 73
75 77 76 74 72 72 72 70 65 70 76 78 80 84 87 90 91 91 92 91 92 92 92 92 92 91 91 87 79 73 72 78 77 64 62 62 63 64 63 62 61 58 60 64 66 67 68 71 70
66 76 73 70 69 71 69 67 68 74 78 85 86 90 90 94 98 100 99 98 97 98 100 100 98 93 92 92 84 76 75 77 75 68 67 66 63 66 66 65 63 61 60 62 64 63 63 65 68
62 61 64 68 72 74 72 69 69 76 82 87 91 89 91 93 96 97 99 100 100 101 105 106 104 101 93 85 77 71 73 75 70 69 69 71 67 68 66 66 64 61 62 60 61 62 63 65 67
54 54 57 61 64 66 67 72 77 83 81 79 83 87 91 97 99 99 101 99 98 98 98 95 94 90 83 76 71 67 68 70 73 74 74 70 68 67 66 66 64 62 61 61 61 64 64 66 70
46 50 51 54 55 55 59 61 70 72 68 64 67 75 84 87 89 88 89 93 95 96 93 89 86 87 79 69 65 70 70 72 73 73 70 68 67 69 66 64 61 62 61 61 61 63 65 66 65
34 38 41 45 44 47 42 42 55 52 57 63 69 75 81 83 85 79 76 84 90 91 88 87 85 86 84 71 69 68 66 74 74 72 69 66 64 63 62 60 60 62 60 62 64 64 66 65 65
Wind_Direction
233 235 235 238 241 241 242 240 240 242 244 244 241 240 243 245 245 246 248 250 257 260 258 257 258 256 255 255 260 263 261 260 260 260 262 266 268 270 274 276 274 274 277 278 275 270 271 272 275
236 235 237 238 239 240 243 240 241 243 243 243 243 244 244 245 246 244 248 252 258 261 260 259 258 259 262 258 258 262 264 263 262 261 261 263 265 266 269 271 273 274 274 274 276 277 278 278 279
237 239 238 239 240 241 242 241 243 244 246 245 247 246 246 245 247 247 251 254 255 257 256 256 258 261 264 263 263 264 263 263 263 263 264 266 267 271 272 272 273 273 273 274 276 276 275 275 278
237 237 239 241 239 242 244 242 243 249 250 248 248 250 250 249 252 250 250 253 255 255 255 257 258 261 263 263 265 265 266 265 264 264 267 269 270 270 272 273 273 272 272 272 272 274 275 276 277
237 237 240 242 243 244 245 244 245 246 249 250 253 253 253 253 256 255 253 253 253 255 256 256 258 259 260 261 264 265 265 268 269 270 269 269 270 271 272 273 271 271 270 271 272 272 273 274 275
235 236 238 240 243 245 247 245 245 247 249 250 251 253 256 256 258 259 256 252 253 256 256 257 257 259 262 263 264 266 268 270 271 270 270 271 270 270 271 271 270 270 270 270 269 271 272 273 275
236 235 237 240 245 247 247 245 244 250 251 253 255 254 254 257 255 256 256 256 257 258 259 258 259 261 263 265 266 268 268 268 269 271 271 271 271 269 269 269 270 270 270 269 270 271 272 273 273
235 236 238 241 244 246 247 247 246 251 254 255 256 255 254 254 256 257 258 259 259 260 260 260 261 262 263 265 266 268 269 268 268 268 269 271 270 271 270 269 270 270 269 269 271 271 273 275 276
237 237 240 241 243 244 246 248 250 252 253 254 256 257 254 255 258 259 260 260 260 261 261 262 263 264 265 266 266 267 269 269 270 269 269 271 269 269 269 268 269 268 268 269 270 272 274 275 276
239 239 241 242 243 245 247 248 249 250 252 255 257 257 257 256 261 263 261 262 262 264 265 265 265 266 266 267 267 267 268 269 269 270 270 269 269 269 269 268 268 268 269 269 269 270 272 274 275
238 238 239 242 244 247 249 248 249 249 253 254 254 256 258 259 259 263 264 264 264 265 265 266 265 264 265 266 267 268 269 268 268 268 268 269 268 268 268 268 268 268 269 269 269 270 271 272 274
236 237 238 241 243 246 249 250 250 248 249 252 253 256 259 260 260 262 264 264 264 264 263 263 264 265 266 266 266 265 266 267 267 268 268 269 269 269 269 270 268 268 269 268 270 271 271 271 272
233 236 238 240 244 246 247 248 248 250 251 253 256 257 257 260 261 261 263 263 262 262 262 262 264 265 266 267 266 268 268 268 269 270 271 271 271 269 269 270 271 272 272 272 272 272 272 272 274
234 235 238 239 240 240 242 244 244 247 251 253 255 257 256 260 262 261 262 265 264 264 267 267 265 266 269 272 272 270 269 270 269 269 268 268 269 268 269 269 271 272 271 271 272 273 273 273 275
232 233 232 234 236 236 240 244 246 247 250 254 254 257 261 263 265 267 266 268 268 267 269 272 271 272 271 271 271 268 268 267 267 268 270 270 269 268 268 268 268 269 270 270 270 271 272 273 274
230 232 234 236 236 238 240 244 246 247 251 251 254 260 261 265 267 268 270 272 272 272 271 272 274 274 272 270 268 267 267 266 265 265 267 268 269 268 268 269 270 269 268 268 268 270 271 272 274
230 231 233 239 237 239 240 240 248 248 251 253 255 257 260 260 265 268 271 271 273 275 275 270 270 270 269 269 267 267 267 267 268 270 270 268 268 270 271 271 271 271 271 270 269 268 269 270 271
228 230 234 237 237 240 243 240 247 251 251 255 258 260 261 263 266 271 272 271 271 268 268 268 265 265 267 268 266 266 267 268 270 271 270 270 268 270 270 270 270 272 271 270 270 270 269 268 269
230 231 234 237 239 238 243 247 247 251 253 255 259 261 261 264 267 269 267 270 270 266 263 264 267 265 266 269 270 267 266 270 271 273 275 274 273 270 269 270 270 270 271 272 272 270 270 269 269
233 233 233 235 238 241 243 244 247 250 254 256 257 259 262 266 268 267 269 269 267 263 263 264 266 265 265 265 267 269 268 269 272 273 274 276 280 276 272 272 272 271 272 272 272 272 270 270 270
234 238 240 241 238 239 243 245 249 251 255 257 260 263 266 266 267 267 266 265 263 260 259 262 264 265 265 269 265 262 264 266 266 268 273 276 278 281 277 271 273 273 272 274 274 274 273 273 272
236 237 240 241 244 245 245 247 253 256 258 261 263 264 264 265 265 264 264 265 265 262 259 262 264 264 266 268 270 265 260 262 264 267 271 274 276 276 272 274 274 274 275 274 275 274 275 276 276
237 238 239 242 243 246 248 247 257 258 260 261 262 264 265 265 264 265 265 265 265 264 263 263 263 264 265 266 269 265 264 262 262 263 266 271 274 275 275 273 280 278 276 275 275 276 276 276 276
239 242 243 243 245 248 252 251 250 258 260 260 262 262 264 267 267 266 264 263 262 263 264 263 264 265 265 265 266 263 260 262 261 261 263 263 259 267 277 280 285 283 280 277 275 274 274 275 277
236 240 243 246 247 249 250 254 254 253 257 261 262 263 263 263 264 264 265 265 265 266 266 265 265 264 265 264 265 264 257 259 261 261 263 262 267 272 278 281 281 281 280 278 276 277 277 275 276
238 239 243 245 248 253 255 257 258 260 259 259 261 263 264 265 265 266 266 268 268 268 267 266 265 263 264 267 265 261 255 253 255 258 262 264 267 274 277 278 279 283 283 281 282 281 280 278 276
240 242 243 247 249 253 259 259 258 258 259 261 263 266 269 268 267 264 263 264 264 264 265 265 266 266 265 265 263 259 254 252 253 256 259 264 268 271 274 274 279 280 281 282 283 284 283 282 280
240 242 245 248 251 253 256 258 261 264 264 265 267 267 265 262 262 264 267 266 264 263 262 262 263 263 261 260 260 258 256 251 252 255 259 262 266 270 272 274 276 279 280 282 284 284 284 283 281
242 246 249 252 255 256 254 263 262 262 265 265 265 263 265 267 266 267 266 266 266 264 262 260 257 258 259 257 255 254 252 252 252 254 258 263 266 269 269 271 274 278 279 281 283 284 286 285 285
237 243 248 254 257 255 253 250 263 271 272 272 274 277 279 276 272 269 266 264 262 261 259 256 252 251 253 250 252 250 249 249 252 256 260 263 263 263 266 269 271 276 280 283 284 286 287 289 287
Height
10818 10825 10833 10840 10845 10845 10845 10848 10856 10858 10866 10867 10865 10869 10878 10885 10887 10892 10889 10888 10894 10897 10899 10900 10901 10902 10904 10906 10907 10907 10908 10909 10910 10911 10911 10912 10913 10913 10913 10914 10914 10914 10912 10911 10911 10911 10910 10909 10908
10809 10818 10825 10834 10836 10835 10832 10842 10850 10854 10857 10854 10859 10864 10870 10879 10877 10879 10879 10883 10887 10889 10891 10892 10893 10895 10896 10898 10898 10899 10901 10902 10903 10903 10904 10904 10905 10905 10905 10906 10906 10906 10904 10904 10902 10901 10900 10899 10899
10799 10809 10816 10825 10827 10822 10820 10838 10843 10846 10843 10848 10852 10856 10865 10870 10862 10871 10877 10876 10879 10880 10882 10883 10885 10887 10888 10889 10890 10891 10892 10893 10895 10895 10895 10896 10896 10897 10897 10897 10897 10896 10896 10895 10894 10892 10891 10890 10890
10789 10799 10806 10816 10811 10809 10814 10830 10837 10836 10832 10841 10845 10847 10857 10861 10854 10865 10870 10865 10869 10870 10873 10875 10876 10878 10880 10880 10881 10882 10883 10884 10885 10886 10887 10887 10887 10886 10887 10887 10887 10887 10886 10885 10884 10883 10882 10881 10881
10779 10789 10797 10803 10798 10801 10804 10821 10827 10823 10826 10832 10834 10841 10849 10851 10846 10854 10864 10858 10857 10861 10864 10866 10868 10869 10871 10872 10873 10873 10873 10874 10875 10876 10876 10876 10877 10876 10876 10876 10876 10876 10876 10875 10875 10873 10872 10871 10870
10769 10777 10787 10788 10783 10792 10797 10810 10813 10811 10818 10821 10822 10834 10839 10838 10838 10843 10853 10850 10848 10851 10856 10858 10858 10859 10861 10863 10863 10864 10864 10866 10865 10866 10866 10865 10864 10864 10864 10863 10863 10863 10864 10863 10863 10862 10862 10860 10860
10756 10766 10773 10775 10775 10785 10784 10793 10805 10801 10811 10810 10813 10824 10830 10828 10825 10829 10840 10842 10841 10842 10846 10849 10849 10850 10851 10852 10853 10853 10854 10856 10856 10854 10854 10853 10852 10851 10851 10851 10852 10852 10851 10851 10851 10851 10850 10849 10848
10740 10756 10763 10767 10764 10765 10768 10781 10795 10796 10798 10800 10803 10811 10822 10815 10811 10820 10828 10832 10830 10831 10834 10837 10838 10840 10840 10841 10841 10842 10842 10842 10843 10843 10841 10840 10839 10839 10839 10838 10838 10838 10839 10838 10838 10838 10837 10836 10835
10727 10749 10754 10750 10749 10742 10754 10772 10787 10790 10783 10788 10792 10799 10808 10804 10801 10809 10814 10824 10818 10818 10823 10826 10827 10827 10828 10828 10829 10830 10830 10829 10828 10829 10828 10826 10825 10825 10825 10825 10824 10824 10825 10825 10825 10824 10823 10822 10821
10720 10733 10734 10732 10733 10736 10747 10765 10772 10776 10765 10776 10783 10781 10793 10797 10793 10793 10797 10806 10809 10806 10809 10811 10812 10814 10815 10815 10816 10816 10816 10815 10813 10813 10813 10810 10810 10811 10810 10810 10810 10810 10810 10810 10810 10810 10809 10809 10808
10707 10717 10715 10719 10723 10730 10739 10749 10757 10762 10757 10760 10771 10770 10777 10781 10780 10777 10782 10791 10794 10796 10793 10795 10796 10800 10800 10801 10801 10801 10801 10800 10798 10797 10797 10795 10793 10793 10794 10794 10794 10794 10796 10796 10794 10794 10793 10793 10793
10689 10698 10705 10706 10711 10722 10727 10731 10742 10747 10748 10748 10754 10759 10760 10762 10765 10768 10770 10773 10777 10781 10784 10783 10781 10785 10784 10786 10786 10786 10786 10786 10783 10783 10781 10780 10779 10778 10778 10777 10779 10778 10779 10780 10778 10780 10778 10778 10776
10678 10686 10693 10695 10702 10714 10712 10716 10726 10734 10737 10736 10740 10747 10747 10747 10747 10755 10758 10758 10761 10764 10767 10772 10772 10772 10770 10768 10769 10770 10772 10772 10768 10767 10768 10766 10764 10764 10763 10762 10763 10764 10762 10764 10763 10763 10763 10762 10760
10663 10671 10682 10685 10687 10698 10696 10700 10714 10721 10720 10724 10731 10733 10735 10736 10732 10738 10743 10743 10747 10750 10750 10752 10759 10761 10758 10753 10754 10755 10756 10756 10752 10750 10752 10752 10749 10750 10749 10749 10751 10749 10747 10748 10747 10745 10745 10747 10746
10650 10657 10661 10665 10670 10681 10684 10696 10706 10701 10710 10714 10718 10721 10723 10724 10724 10721 10726 10728 10729 10736 10737 10734 10739 10743 10744 10741 10738 10740 10741 10740 10737 10736 10735 10735 10735 10735 10735 10736 10736 10735 10733 10732 10732 10732 10731 10731 10732
10635 10643 10651 10649 10661 10668 10676 10690 10686 10691 10698 10705 10705 10707 10710 10710 10711 10709 10710 10713 10713 10716 10724 10724 10719 10723 10723 10727 10725 10724 10727 10724 10722 10722 10722 10721 10719 10720 10721 10721 10722 10720 10718 10718 10717 10717 10718 10717 10717
10624 10632 10635 10641 10650 10657 10669 10677 10671 10682 10690 10691 10693 10695 10696 10699 10697 10696 10695 10697 10700 10701 10702 10708 10707 10705 10706 10707 10714 10711 10713 10711 10709 10708 10705 10705 10703 10706 10707 10706 10705 10706 10705 10703 10702 10702 10703 10702 10702
10603 10617 10628 10633 10641 10649 10659 10668 10664 10667 10678 10677 10678 10680 10685 10686 10683 10682 10683 10683 10683 10686 10686 10687 10696 10694 10689 10691 10698 10699 10700 10699 10697 10695 10692 10689 10691 10695 10693 10690 10689 10690 10689 10687 10687 10687 10687 10686 10686
10600 10612 10616 10619 10625 10636 10644 10653 10654 10651 10663 10665 10665 10667 10668 10669 10664 10669 10667 10667 10669 10670 10674 10673 10675 10681 10681 10678 10681 10686 10688 10689 10687 10683 10681 10673 10675 10683 10678 10676 10674 10674 10674 10673 10674 10673 10671 10669 10669
10587 10595 10598 10605 10615 10629 10631 10640 10641 10642 10649 10650 10646 10649 10649 10651 10652 10653 10655 10656 10655 10654 10654 10656 10659 10661 10666 10667 10668 10673 10673 10675 10674 10671 10668 10664 10661 10665 10664 10662 10659 10659 10659 10659 10658 10658 10658 10655 10653
10572 10581 10587 10594 10603 10611 10619 10630 10627 10631 10630 10631 10630 10631 10634 10635 10636 10636 10637 10640 10641 10641 10639 10639 10640 10644 10646 10650 10655 10661 10662 10662 10661 10659 10656 10654 10652 10653 10651 10648 10644 10644 10645 10644 10643 10642 10641 10641 10639
10561 10569 10572 10578 10585 10597 10606 10618 10614 10614 10616 10614 10612 10615 10615 10614 10615 10617 10618 10621 10625 10626 10624 10624 10622 10625 10628 10631 10633 10637 10647 10648 10646 10646 10645 10644 10641 10642 10640 10635 10633 10631 10631 10629 10626 10625 10624 10623 10622
10549 10553 10556 10566 10574 10583 10588 10601 10605 10598 10597 10596 10595 10592 10594 10593 10596 10599 10601 10602 10602 10604 10605 10603 10603 10606 10610 10616 10619 10621 10622 10630 10632 10634 10633 10632 10629 10629 10628 10625 10622 10619 10617 10614 10611 10609 10607 10605 10605
10535 10539 10548 10555 10563 10573 10571 10584 10597 10581 10573 10573 10578 10579 10575 10571 10574 10574 10574 10576 10577 10577 10579 10582 10582 10583 10587 10594 10605 10607 10608 10606 10613 10620 10619 10620 10618 10617 10616 10613 10611 10606 10603 10599 10596 10593 10592 10589 10586
10525 10527 10535 10545 10552 10557 10560 10565 10576 10567 10558 10556 10556 10554 10553 10551 10551 10552 10552 10555 10554 10556 10557 10559 10562 10566 10563 10570 10585 10590 10595 10590 10593 10603 10604 10603 10603 10603 10601 10599 10597 10595 10590 10585 10582 10580 10578 10575 10573
10512 10516 10526 10534 10538 10542 10549 10554 10552 10545 10545 10539 10537 10535 10533 10530 10529 10529 10529 10530 10531 10529 10527 10528 10532 10542 10543 10547 10562 10568 10573 10573 10579 10586 10585 10586 10588 10588 10586 10584 10583 10581 10577 10571 10567 10564 10562 10560 10557
10503 10509 10516 10522 10527 10532 10532 10537 10537 10527 10520 10517 10519 10520 10514 10508 10501 10502 10504 10502 10501 10502 10499 10500 10507 10514 10523 10528 10537 10547 10552 10558 10563 10566 10568 10570 10573 10572 10573 10570 10569 10567 10562 10558 10553 10550 10547 10543 10540
10497 10502 10507 10511 10516 10520 10524 10520 10514 10503 10503 10505 10503 10496 10488 10479 10475 10475 10474 10471 10473 10472 10473 10478 10481 10487 10500 10512 10521 10530 10535 10540 10542 10547 10550 10554 10559 10560 10557 10556 10555 10553 10549 10545 10541 10535 10532 10528 10524
10488 10492 10498 10500 10504 10507 10504 10507 10492 10488 10490 10489 10479 10470 10460 10456 10452 10454 10454 10448 10442 10440 10446 10453 10460 10464 10478 10494 10503 10507 10515 10516 10521 10528 10535 10540 10544 10543 10542 10542 10542 10538 10535 10530 10526 10521 10517 10513 10508
10481 10484 10489 10492 10493 10487 10495 10492 10478 10480 10474 10468 10461 10450 10436 10428 10422 10426 10424 10415 10406 10404 10413 10422 10435 10447 10458 10472 10478 10485 10492 10498 10505 10516 10523 10527 10528 10528 10528 10529 10527 10524 10521 10517 10512 10507 10502 10497 10492